Location: Bothwell
(42.3833°S, 147.0000°E)
Time: 21:22:04
(UTC+10:00)

CUTE 1.7 + AOD 2 - Pass Details

Date: 03 February 2023
Orbit: 584 x 601 km, 97.7° (Epoch: 02 April)

Event Time Altitude Azimuth Distance (km) Brightness Sun altitude
Exits shadow 04:45:44 26° 302° (WNW) 1,170 ? -15.1°
Maximum altitude 04:46:45 30° 276° (W) 1,086 ? -15.0°
Drops below altitude 10° 04:50:29 10° 214° (SW) 1,946 ? -14.4°
Sets 04:52:53 0° 203° (SSW) 2,859 ? -14.1°
